Time,TemperatureF,DewpointF,PressureIn,WindDirection,WindDirectionDegrees,WindSpeedMPH,WindSpeedGustMPH,Humidity,HourlyPrecipIn,Conditions,Clouds,dailyrainin,SolarRadiationWatts/m^2,SoftwareType,DateUTC
2013-05-16 00:01:00,66.4,45.6,29.70,WNW,282,3.0,3.0,47,0.00,,---,0.00,0.00,VWS V14.00,2013-05-16 05:01:00,
2013-05-16 00:06:00,66.4,45.6,29.70,West,281,1.0,1.0,47,0.00,,---,0.00,0.00,VWS V14.00,2013-05-16 05:06:00,
2013-05-16 00:11:00,66.4,45.6,29.70,WSW,243,0.0,1.0,47,0.00,,---,0.00,0.00,VWS V14.00,2013-05-16 05:11:00,
2013-05-16 00:16:00,66.4,45.6,29.70,WSW,237,2.0,2.0,47,0.00,,---,0.00,0.00,VWS V14.00,2013-05-16 05:16:00,
2013-05-16 00:21:00,66.1,45.3,29.71,WSW,248,0.0,0.0,47,0.00,,---,0.00,0.00,VWS V14.00,2013-05-16 05:21:00,
2013-05-16 00:26:00,66.1,45.3,29.71,SW,236,0.0,0.0,47,0.00,,---,0.00,0.00,VWS V14.00,2013-05-16 05:26:00,
2013-05-16 00:31:00,66.0,45.2,29.71,SW,236,0.0,0.0,47,0.00,,---,0.00,0.00,VWS V14.00,2013-05-16 05:31:00,
2013-05-16 00:36:00,65.8,45.0,29.71,WSW,244,1.0,1.0,47,0.00,,---,0.00,0.00,VWS V14.00,2013-05-16 05:36:00,
2013-05-16 00:41:00,65.5,45.8,29.71,SSW,210,0.0,2.0,49,0.00,,---,0.00,0.00,VWS V14.00,2013-05-16 05:41:00,
2013-05-16 00:46:00,65.5,45.8,29.71,SSW,210,1.0,1.0,49,0.00,,---,0.00,0.00,VWS V14.00,2013-05-16 05:46:00,
2013-05-16 00:51:00,65.0,45.4,29.71,SSW,206,0.0,0.0,49,0.00,,---,0.00,0.00,VWS V14.00,2013-05-16 05:51:00,
2013-05-16 00:56:00,65.0,45.4,29.71,SSW,206,0.0,0.0,49,0.00,,---,0.00,0.00,VWS V14.00,2013-05-16 05:56:00,
2013-05-16 01:01:00,64.8,45.7,29.71,SSW,206,1.0,1.0,50,0.00,,---,0.00,0.00,VWS V14.00,2013-05-16 06:01:00,
2013-05-16 01:06:00,64.3,45.3,29.72,SSW,206,1.0,1.0,50,0.00,,---,0.00,0.00,VWS V14.00,2013-05-16 06:06:00,
2013-05-16 01:11:00,64.3,45.3,29.72,SSW,206,0.0,0.0,50,0.00,,---,0.00,0.00,VWS V14.00,2013-05-16 06:11:00,
2013-05-16 01:16:00,64.3,45.3,29.72,SSW,206,0.0,0.0,50,0.00,,---,0.00,0.00,VWS V14.00,2013-05-16 06:16:00,
2013-05-16 01:21:00,64.3,45.3,29.72,SW,229,0.0,1.0,50,0.00,,---,0.00,0.00,VWS V14.00,2013-05-16 06:21:00,
2013-05-16 01:26:00,63.5,44.5,29.72,WSW,237,0.0,0.0,50,0.00,,---,0.00,0.00,VWS V14.00,2013-05-16 06:26:00,
2013-05-16 01:31:00,63.2,45.3,29.72,WSW,253,0.0,0.0,52,0.00,,---,0.00,0.00,VWS V14.00,2013-05-16 06:31:00,
2013-05-16 01:36:00,63.1,45.7,29.71,WSW,253,0.0,1.0,53,0.00,,---,0.00,0.00,VWS V14.00,2013-05-16 06:36:00,
2013-05-16 01:41:00,63.1,45.7,29.71,WSW,253,0.0,0.0,53,0.00,,---,0.00,0.00,VWS V14.00,2013-05-16 06:41:00,
2013-05-16 01:46:00,62.9,45.5,29.71,West,268,0.0,1.0,53,0.00,,---,0.00,0.00,VWS V14.00,2013-05-16 06:46:00,
2013-05-16 01:51:00,62.7,45.3,29.72,West,268,0.0,0.0,53,0.00,,---,0.00,0.00,VWS V14.00,2013-05-16 06:51:00,
2013-05-16 01:56:00,62.7,45.8,29.72,West,268,0.0,0.0,54,0.00,,---,0.00,0.00,VWS V14.00,2013-05-16 06:56:00,
2013-05-16 02:01:00,62.6,45.7,29.72,West,268,0.0,0.0,54,0.00,,---,0.00,0.00,VWS V14.00,2013-05-16 07:01:00,
2013-05-16 02:06:00,62.4,45.5,29.72,West,268,0.0,0.0,54,0.00,,---,0.00,0.00,VWS V14.00,2013-05-16 07:06:00,
2013-05-16 02:11:00,62.4,45.5,29.72,West,263,0.0,0.0,54,0.00,,---,0.00,0.00,VWS V14.00,2013-05-16 07:11:00,
2013-05-16 02:16:00,62.4,45.5,29.72,West,260,0.0,0.0,54,0.00,,---,0.00,0.00,VWS V14.00,2013-05-16 07:16:00,
2013-05-16 02:21:00,62.4,45.5,29.72,West,260,0.0,0.0,54,0.00,,---,0.00,0.00,VWS V14.00,2013-05-16 07:21:00,
2013-05-16 02:26:00,61.8,45.0,29.72,West,260,0.0,0.0,54,0.00,,---,0.00,0.00,VWS V14.00,2013-05-16 07:26:00,
2013-05-16 02:31:00,61.3,44.5,29.72,West,260,1.0,1.0,54,0.00,,---,0.00,0.00,VWS V14.00,2013-05-16 07:31:00,
2013-05-16 02:36:00,60.9,44.2,29.73,West,264,0.0,1.0,54,0.00,,---,0.00,0.00,VWS V14.00,2013-05-16 07:36:00,
2013-05-16 02:41:00,60.9,44.2,29.73,West,264,0.0,0.0,54,0.00,,---,0.00,0.00,VWS V14.00,2013-05-16 07:41:00,
2013-05-16 02:46:00,60.9,44.2,29.73,West,263,0.0,0.0,54,0.00,,---,0.00,0.00,VWS V14.00,2013-05-16 07:46:00,
2013-05-16 02:51:00,60.9,44.2,29.73,West,263,0.0,0.0,54,0.00,,---,0.00,0.00,VWS V14.00,2013-05-16 07:51:00,
2013-05-16 02:56:00,60.4,43.7,29.73,West,263,1.0,1.0,54,0.00,,---,0.00,0.00,VWS V14.00,2013-05-16 07:56:00,
2013-05-16 03:01:00,60.4,43.7,29.73,West,264,0.0,0.0,54,0.00,,---,0.00,0.00,VWS V14.00,2013-05-16 08:01:00,
2013-05-16 03:06:00,60.4,43.7,29.73,West,264,0.0,0.0,54,0.00,,---,0.00,0.00,VWS V14.00,2013-05-16 08:06:00,
2013-05-16 03:11:00,60.4,46.5,29.73,West,263,0.0,0.0,60,0.00,,---,0.00,0.00,VWS V14.00,2013-05-16 08:11:00,
2013-05-16 03:16:00,60.4,46.5,29.73,West,263,0.0,0.0,60,0.00,,---,0.00,0.00,VWS V14.00,2013-05-16 08:16:00,
2013-05-16 03:21:00,59.3,45.4,29.72,West,264,0.0,0.0,60,0.00,,---,0.00,0.00,VWS V14.00,2013-05-16 08:21:00,
2013-05-16 03:26:00,59.0,45.6,29.72,North,0,0.0,0.0,61,0.00,,---,0.00,0.00,VWS V14.00,2013-05-16 08:26:00,
2013-05-16 03:31:00,58.7,45.3,29.72,West,263,0.0,0.0,61,0.00,,---,0.00,0.00,VWS V14.00,2013-05-16 08:31:00,
2013-05-16 03:36:00,58.6,45.2,29.73,West,264,1.0,1.0,61,0.00,,---,0.00,0.00,VWS V14.00,2013-05-16 08:36:00,
2013-05-16 03:41:00,58.3,45.8,29.73,West,264,0.0,0.0,63,0.00,,---,0.00,0.00,VWS V14.00,2013-05-16 08:41:00,
2013-05-16 03:46:00,58.0,45.9,29.73,West,263,0.0,0.0,64,0.00,,---,0.00,0.00,VWS V14.00,2013-05-16 08:46:00,
2013-05-16 03:51:00,58.0,45.9,29.73,West,263,0.0,0.0,64,0.00,,---,0.00,0.00,VWS V14.00,2013-05-16 08:51:00,
2013-05-16 03:56:00,57.6,45.5,29.73,West,264,0.0,0.0,64,0.00,,---,0.00,0.00,VWS V14.00,2013-05-16 08:56:00,
2013-05-16 04:01:00,57.3,45.2,29.73,WSW,257,0.0,0.0,64,0.00,,---,0.00,0.00,VWS V14.00,2013-05-16 09:01:00,
2013-05-16 04:06:00,57.3,45.2,29.73,West,263,0.0,0.0,64,0.00,,---,0.00,0.00,VWS V14.00,2013-05-16 09:06:00,
2013-05-16 04:11:00,57.0,45.8,29.73,West,263,0.0,0.0,66,0.00,,---,0.00,0.00,VWS V14.00,2013-05-16 09:11:00,
2013-05-16 04:16:00,57.0,45.8,29.73,West,264,0.0,0.0,66,0.00,,---,0.00,0.00,VWS V14.00,2013-05-16 09:16:00,
2013-05-16 04:21:00,56.7,45.5,29.73,West,264,0.0,0.0,66,0.00,,---,0.00,0.00,VWS V14.00,2013-05-16 09:21:00,
2013-05-16 04:26:00,56.7,45.5,29.73,West,264,0.0,0.0,66,0.00,,---,0.00,0.00,VWS V14.00,2013-05-16 09:26:00,
2013-05-16 04:31:00,56.7,45.5,29.73,West,264,0.0,0.0,66,0.00,,---,0.00,0.00,VWS V14.00,2013-05-16 09:31:00,
2013-05-16 04:36:00,56.5,46.1,29.74,WSW,257,0.0,0.0,68,0.00,,---,0.00,0.00,VWS V14.00,2013-05-16 09:36:00,
2013-05-16 04:41:00,56.5,46.1,29.74,West,263,0.0,0.0,68,0.00,,---,0.00,0.00,VWS V14.00,2013-05-16 09:41:00,
2013-05-16 04:46:00,56.5,46.1,29.74,West,264,0.0,0.0,68,0.00,,---,0.00,0.00,VWS V14.00,2013-05-16 09:46:00,
2013-05-16 04:51:00,56.0,46.0,29.74,WSW,257,0.0,0.0,69,0.00,,---,0.00,0.00,VWS V14.00,2013-05-16 09:51:00,
2013-05-16 04:56:00,55.9,45.9,29.74,West,263,0.0,0.0,69,0.00,,---,0.00,0.00,VWS V14.00,2013-05-16 09:56:00,
2013-05-16 05:01:00,55.9,45.9,29.74,West,264,0.0,0.0,69,0.00,,---,0.00,0.00,VWS V14.00,2013-05-16 10:01:00,
2013-05-16 05:06:00,55.4,45.4,29.74,West,263,0.0,0.0,69,0.00,,---,0.00,0.00,VWS V14.00,2013-05-16 10:06:00,
2013-05-16 05:11:00,55.4,45.4,29.74,West,264,0.0,0.0,69,0.00,,---,0.00,0.00,VWS V14.00,2013-05-16 10:11:00,
2013-05-16 05:16:00,55.1,45.1,29.74,West,264,0.0,0.0,69,0.00,,---,0.00,0.00,VWS V14.00,2013-05-16 10:16:00,
2013-05-16 05:21:00,55.0,45.0,29.74,West,264,0.0,0.0,69,0.00,,---,0.00,0.00,VWS V14.00,2013-05-16 10:21:00,
2013-05-16 05:26:00,55.0,45.0,29.74,West,264,0.0,0.0,69,0.00,,---,0.00,0.00,VWS V14.00,2013-05-16 10:26:00,
2013-05-16 05:31:00,54.8,44.8,29.74,West,264,0.0,0.0,69,0.00,,---,0.00,0.00,VWS V14.00,2013-05-16 10:31:00,
2013-05-16 05:36:00,54.4,44.5,29.75,West,263,0.0,0.0,69,0.00,,---,0.00,0.00,VWS V14.00,2013-05-16 10:36:00,
2013-05-16 05:41:00,54.4,44.5,29.75,West,263,0.0,0.0,69,0.00,,---,0.00,0.00,VWS V14.00,2013-05-16 10:41:00,
2013-05-16 05:46:00,54.1,44.2,29.75,West,263,0.0,0.0,69,0.00,,---,0.00,0.00,VWS V14.00,2013-05-16 10:46:00,
2013-05-16 05:51:00,54.1,45.7,29.75,West,264,0.0,0.0,73,0.00,,---,0.00,0.00,VWS V14.00,2013-05-16 10:51:00,
2013-05-16 05:56:00,53.9,45.5,29.75,West,264,0.0,0.0,73,0.00,,---,0.00,5.00,VWS V14.00,2013-05-16 10:56:00,
2013-05-16 06:01:00,53.8,45.4,29.75,West,264,0.0,1.0,73,0.00,,---,0.00,5.00,VWS V14.00,2013-05-16 11:01:00,
2013-05-16 06:06:00,53.6,45.2,29.76,West,264,0.0,0.0,73,0.00,,---,0.00,5.00,VWS V14.00,2013-05-16 11:06:00,
2013-05-16 06:11:00,53.5,45.8,29.76,West,264,0.0,0.0,75,0.00,,---,0.00,12.00,VWS V14.00,2013-05-16 11:11:00,
2013-05-16 06:16:00,53.5,46.1,29.76,West,264,0.0,0.0,76,0.00,,---,0.00,16.00,VWS V14.00,2013-05-16 11:16:00,
2013-05-16 06:21:00,53.2,45.8,29.76,West,264,0.0,0.0,76,0.00,,---,0.00,18.00,VWS V14.00,2013-05-16 11:21:00,
2013-05-16 06:26:00,53.1,46.4,29.76,West,264,0.0,0.0,78,0.00,,---,0.00,21.00,VWS V14.00,2013-05-16 11:26:00,
2013-05-16 06:31:00,53.1,46.4,29.76,West,264,0.0,0.0,78,0.00,,---,0.00,21.00,VWS V14.00,2013-05-16 11:31:00,
2013-05-16 06:36:00,53.1,46.4,29.77,West,264,0.0,0.0,78,0.00,,---,0.00,21.00,VWS V14.00,2013-05-16 11:36:00,
2013-05-16 06:41:00,53.2,46.9,29.77,West,264,0.0,0.0,79,0.00,,---,0.00,21.00,VWS V14.00,2013-05-16 11:41:00,
2013-05-16 06:46:00,53.2,46.9,29.77,WNW,295,0.0,1.0,79,0.00,,---,0.00,21.00,VWS V14.00,2013-05-16 11:46:00,
2013-05-16 06:51:00,53.5,47.2,29.77,NW,309,1.0,1.0,79,0.00,,---,0.00,21.00,VWS V14.00,2013-05-16 11:51:00,
2013-05-16 06:56:00,53.9,47.2,29.77,NW,312,1.0,1.0,78,0.00,,---,0.00,21.00,VWS V14.00,2013-05-16 11:56:00,
2013-05-16 07:01:00,54.5,47.5,29.77,NW,312,1.0,1.0,77,0.00,,---,0.00,164.00,VWS V14.00,2013-05-16 12:01:00,
2013-05-16 07:06:00,55.0,47.6,29.78,NE,51,1.0,1.0,76,0.00,,---,0.00,183.00,VWS V14.00,2013-05-16 12:06:00,
2013-05-16 07:11:00,55.7,48.3,29.78,NE,51,0.0,0.0,76,0.00,,---,0.00,190.00,VWS V14.00,2013-05-16 12:11:00,
2013-05-16 07:16:00,55.7,48.3,29.78,NE,45,2.0,2.0,76,0.00,,---,0.00,201.00,VWS V14.00,2013-05-16 12:16:00,
2013-05-16 07:21:00,56.9,49.4,29.78,ENE,73,2.0,2.0,76,0.00,,---,0.00,201.00,VWS V14.00,2013-05-16 12:21:00,
2013-05-16 07:26:00,57.6,50.1,29.78,East,82,0.0,0.0,76,0.00,,---,0.00,201.00,VWS V14.00,2013-05-16 12:26:00,
2013-05-16 07:31:00,58.4,50.9,29.78,NE,49,1.0,1.0,76,0.00,,---,0.00,201.00,VWS V14.00,2013-05-16 12:31:00,
2013-05-16 07:36:00,59.8,52.2,29.79,NNE,27,1.0,2.0,76,0.00,,---,0.00,201.00,VWS V14.00,2013-05-16 12:36:00,
2013-05-16 07:41:00,60.2,52.6,29.79,NE,34,2.0,2.0,76,0.00,,---,0.00,289.00,VWS V14.00,2013-05-16 12:41:00,
2013-05-16 07:46:00,60.7,53.1,29.79,East,83,1.0,2.0,76,0.00,,---,0.00,304.00,VWS V14.00,2013-05-16 12:46:00,
2013-05-16 07:51:00,61.5,47.9,29.78,NNE,30,0.0,1.0,61,0.00,,---,0.00,320.00,VWS V14.00,2013-05-16 12:51:00,
2013-05-16 07:56:00,62.0,48.4,29.78,North,349,1.0,2.0,61,0.00,,---,0.00,320.00,VWS V14.00,2013-05-16 12:56:00,
2013-05-16 08:01:00,62.3,48.2,29.78,North,0,2.0,2.0,60,0.00,,---,0.00,340.00,VWS V14.00,2013-05-16 13:01:00,
2013-05-16 08:06:00,62.9,48.4,29.79,North,0,2.0,3.0,59,0.00,,---,0.00,359.00,VWS V14.00,2013-05-16 13:06:00,
2013-05-16 08:11:00,62.9,48.4,29.79,ENE,65,2.0,2.0,59,0.00,,---,0.00,359.00,VWS V14.00,2013-05-16 13:11:00,
2013-05-16 08:16:00,63.7,49.1,29.79,NE,37,1.0,3.0,59,0.00,,---,0.00,359.00,VWS V14.00,2013-05-16 13:16:00,
2013-05-16 08:21:00,63.7,49.1,29.79,North,359,2.0,2.0,59,0.00,,---,0.00,359.00,VWS V14.00,2013-05-16 13:21:00,
2013-05-16 08:26:00,63.7,49.1,29.79,North,356,5.0,5.0,59,0.00,,---,0.00,359.00,VWS V14.00,2013-05-16 13:26:00,
2013-05-16 08:31:00,65.3,50.6,29.79,NNE,18,1.0,2.0,59,0.00,,---,0.00,359.00,VWS V14.00,2013-05-16 13:31:00,
2013-05-16 08:36:00,65.6,50.9,29.79,ENE,62,1.0,1.0,59,0.00,,---,0.00,359.00,VWS V14.00,2013-05-16 13:36:00,
2013-05-16 08:41:00,66.1,51.4,29.79,NNE,18,1.0,2.0,59,0.00,,---,0.00,359.00,VWS V14.00,2013-05-16 13:41:00,
2013-05-16 08:46:00,66.1,51.4,29.79,North,1,3.0,3.0,59,0.00,,---,0.00,359.00,VWS V14.00,2013-05-16 13:46:00,
2013-05-16 08:51:00,67.1,52.3,29.79,NE,47,3.0,3.0,59,0.00,,---,0.00,359.00,VWS V14.00,2013-05-16 13:51:00,
2013-05-16 08:56:00,68.1,53.2,29.79,East,83,5.0,5.0,59,0.00,,---,0.00,359.00,VWS V14.00,2013-05-16 13:56:00,
2013-05-16 09:01:00,68.6,53.7,29.79,ENE,68,2.0,2.0,59,0.00,,---,0.00,359.00,VWS V14.00,2013-05-16 14:01:00,
2013-05-16 09:06:00,68.6,47.0,29.80,ENE,71,6.0,6.0,46,0.00,,---,0.00,359.00,VWS V14.00,2013-05-16 14:06:00,
2013-05-16 09:11:00,69.1,47.5,29.80,ESE,107,3.0,5.0,46,0.00,,---,0.00,359.00,VWS V14.00,2013-05-16 14:11:00,
2013-05-16 09:16:00,69.4,47.7,29.80,NE,44,5.0,5.0,46,0.00,,---,0.00,359.00,VWS V14.00,2013-05-16 14:16:00,
2013-05-16 09:21:00,69.6,47.9,29.81,ENE,61,2.0,2.0,46,0.00,,---,0.00,359.00,VWS V14.00,2013-05-16 14:21:00,
2013-05-16 09:26:00,70.3,48.6,29.81,East,83,4.0,4.0,46,0.00,,---,0.00,359.00,VWS V14.00,2013-05-16 14:26:00,
2013-05-16 09:31:00,70.8,47.8,29.81,ESE,107,2.0,2.0,44,0.00,,---,0.00,359.00,VWS V14.00,2013-05-16 14:31:00,
2013-05-16 09:36:00,70.9,48.5,29.80,ESE,102,3.0,3.0,45,0.00,,---,0.00,537.00,VWS V14.00,2013-05-16 14:36:00,
2013-05-16 09:41:00,71.1,48.7,29.80,East,93,7.0,7.0,45,0.00,,---,0.00,537.00,VWS V14.00,2013-05-16 14:41:00,
2013-05-16 09:46:00,71.1,48.7,29.80,ENE,66,2.0,2.0,45,0.00,,---,0.00,537.00,VWS V14.00,2013-05-16 14:46:00,
2013-05-16 09:51:00,72.0,48.3,29.80,ESE,113,3.0,3.0,43,0.00,,---,0.00,537.00,VWS V14.00,2013-05-16 14:51:00,
2013-05-16 09:56:00,72.0,48.3,29.80,East,85,3.0,3.0,43,0.00,,---,0.00,537.00,VWS V14.00,2013-05-16 14:56:00,
2013-05-16 10:01:00,72.3,49.8,29.80,North,357,2.0,2.0,45,0.00,,---,0.00,537.00,VWS V14.00,2013-05-16 15:01:00,
2013-05-16 10:06:00,72.8,50.2,29.80,SE,130,3.0,3.0,45,0.00,,---,0.00,537.00,VWS V14.00,2013-05-16 15:06:00,
2013-05-16 10:11:00,73.2,50.6,29.80,ENE,71,3.0,3.0,45,0.00,,---,0.00,537.00,VWS V14.00,2013-05-16 15:11:00,
2013-05-16 10:16:00,74.0,51.3,29.80,East,97,1.0,4.0,45,0.00,,---,0.00,537.00,VWS V14.00,2013-05-16 15:16:00,
2013-05-16 10:21:00,74.9,52.2,29.80,ESE,104,5.0,8.0,45,0.00,,---,0.00,537.00,VWS V14.00,2013-05-16 15:21:00,
2013-05-16 10:26:00,74.9,52.2,29.80,ESE,103,10.0,10.0,45,0.00,,---,0.00,537.00,VWS V14.00,2013-05-16 15:26:00,
2013-05-16 10:31:00,75.1,52.3,29.80,ESE,109,7.0,7.0,45,0.00,,---,0.00,811.00,VWS V14.00,2013-05-16 15:31:00,
2013-05-16 10:36:00,75.1,52.3,29.80,East,97,3.0,3.0,45,0.00,,---,0.00,811.00,VWS V14.00,2013-05-16 15:36:00,
2013-05-16 10:41:00,75.4,52.6,29.80,ESE,117,12.0,12.0,45,0.00,,---,0.00,811.00,VWS V14.00,2013-05-16 15:41:00,
2013-05-16 10:46:00,75.8,53.0,29.80,ENE,78,5.0,5.0,45,0.00,,---,0.00,811.00,VWS V14.00,2013-05-16 15:46:00,
2013-05-16 10:51:00,75.8,53.0,29.80,East,92,3.0,7.0,45,0.00,,---,0.00,811.00,VWS V14.00,2013-05-16 15:51:00,
2013-05-16 10:56:00,76.1,53.2,29.80,ESE,114,5.0,5.0,45,0.00,,---,0.00,811.00,VWS V14.00,2013-05-16 15:56:00,
2013-05-16 11:01:00,76.1,53.2,29.80,ESE,114,7.0,7.0,45,0.00,,---,0.00,811.00,VWS V14.00,2013-05-16 16:01:00,
2013-05-16 11:06:00,77.2,54.2,29.80,East,88,2.0,2.0,45,0.00,,---,0.00,811.00,VWS V14.00,2013-05-16 16:06:00,
2013-05-16 11:11:00,77.7,44.7,29.80,ENE,62,5.0,5.0,31,0.00,,---,0.00,852.00,VWS V14.00,2013-05-16 16:11:00,
2013-05-16 11:16:00,77.7,44.7,29.80,North,0,4.0,4.0,31,0.00,,---,0.00,852.00,VWS V14.00,2013-05-16 16:16:00,
2013-05-16 11:21:00,77.9,44.9,29.80,East,88,3.0,3.0,31,0.00,,---,0.00,852.00,VWS V14.00,2013-05-16 16:21:00,
2013-05-16 11:26:00,77.9,44.9,29.80,ESE,109,4.0,4.0,31,0.00,,---,0.00,859.00,VWS V14.00,2013-05-16 16:26:00,
2013-05-16 11:31:00,78.1,42.4,29.80,East,82,6.0,6.0,28,0.00,,---,0.00,859.00,VWS V14.00,2013-05-16 16:31:00,
2013-05-16 11:36:00,78.1,42.4,29.79,East,89,5.0,5.0,28,0.00,,---,0.00,859.00,VWS V14.00,2013-05-16 16:36:00,
2013-05-16 11:41:00,77.9,42.2,29.79,East,100,3.0,3.0,28,0.00,,---,0.00,859.00,VWS V14.00,2013-05-16 16:41:00,
2013-05-16 11:46:00,78.1,42.4,29.79,NE,34,1.0,1.0,28,0.00,,---,0.00,859.00,VWS V14.00,2013-05-16 16:46:00,
2013-05-16 11:51:00,78.1,42.4,29.79,SE,130,5.0,5.0,28,0.00,,---,0.00,859.00,VWS V14.00,2013-05-16 16:51:00,
2013-05-16 11:56:00,78.6,42.8,29.79,ENE,71,5.0,5.0,28,0.00,,---,0.00,859.00,VWS V14.00,2013-05-16 16:56:00,
2013-05-16 12:01:00,78.6,42.8,29.79,ESE,106,6.0,6.0,28,0.00,,---,0.00,859.00,VWS V14.00,2013-05-16 17:01:00,
2013-05-16 12:06:00,78.6,42.8,29.78,ESE,103,7.0,7.0,28,0.00,,---,0.00,859.00,VWS V14.00,2013-05-16 17:06:00,
2013-05-16 12:11:00,78.8,43.0,29.78,East,88,3.0,3.0,28,0.00,,---,0.00,859.00,VWS V14.00,2013-05-16 17:11:00,
2013-05-16 12:16:00,78.6,42.8,29.78,ESE,102,1.0,1.0,28,0.00,,---,0.00,859.00,VWS V14.00,2013-05-16 17:16:00,
2013-05-16 12:21:00,79.2,45.1,29.78,East,80,4.0,4.0,30,0.00,,---,0.00,859.00,VWS V14.00,2013-05-16 17:21:00,
2013-05-16 12:25:00,79.0,41.2,29.78,ESE,119,5.0,5.0,26,0.00,,---,0.00,859.00,VWS V14.00,2013-05-16 17:25:00,
2013-05-16 12:30:00,78.8,41.0,29.78,ESE,103,5.0,5.0,26,0.00,,---,0.00,859.00,VWS V14.00,2013-05-16 17:30:00,
2013-05-16 12:35:00,78.8,41.0,29.78,ENE,78,2.0,2.0,26,0.00,,---,0.00,859.00,VWS V14.00,2013-05-16 17:35:00,
2013-05-16 12:40:00,79.4,42.5,29.78,East,99,4.0,4.0,27,0.00,,---,0.00,859.00,VWS V14.00,2013-05-16 17:40:00,
2013-05-16 12:45:00,79.6,42.7,29.78,NE,54,4.0,4.0,27,0.00,,---,0.00,859.00,VWS V14.00,2013-05-16 17:45:00,
2013-05-16 12:50:00,79.6,42.7,29.78,SE,131,8.0,8.0,27,0.00,,---,0.00,859.00,VWS V14.00,2013-05-16 17:50:00,
2013-05-16 12:55:00,79.6,42.7,29.78,SE,128,6.0,6.0,27,0.00,,---,0.00,859.00,VWS V14.00,2013-05-16 17:55:00,
2013-05-16 13:00:00,79.2,42.4,29.78,SE,126,4.0,4.0,27,0.00,,---,0.00,859.00,VWS V14.00,2013-05-16 18:00:00,
2013-05-16 13:05:00,79.2,42.4,29.77,East,99,5.0,5.0,27,0.00,,---,0.00,859.00,VWS V14.00,2013-05-16 18:05:00,
2013-05-16 13:10:00,79.2,41.4,29.77,ENE,61,5.0,5.0,26,0.00,,---,0.00,859.00,VWS V14.00,2013-05-16 18:10:00,
2013-05-16 13:15:00,79.4,41.6,29.77,NE,56,5.0,5.0,26,0.00,,---,0.00,859.00,VWS V14.00,2013-05-16 18:15:00,
2013-05-16 13:20:00,79.6,41.7,29.77,East,79,3.0,3.0,26,0.00,,---,0.00,859.00,VWS V14.00,2013-05-16 18:20:00,
2013-05-16 13:25:00,79.6,42.7,29.77,ESE,106,5.0,5.0,27,0.00,,---,0.00,859.00,VWS V14.00,2013-05-16 18:25:00,
2013-05-16 13:31:00,80.3,43.3,29.77,ESE,107,5.0,6.0,27,0.00,,---,0.00,859.00,VWS V14.00,2013-05-16 18:31:00,
2013-05-16 13:36:00,80.3,43.3,29.77,SE,126,5.0,5.0,27,0.00,,---,0.00,859.00,VWS V14.00,2013-05-16 18:36:00,
2013-05-16 13:40:00,80.1,41.1,29.77,East,83,5.0,5.0,25,0.00,,---,0.00,859.00,VWS V14.00,2013-05-16 18:40:00,
2013-05-16 13:45:00,80.1,41.1,29.77,ESE,103,7.0,7.0,25,0.00,,---,0.00,859.00,VWS V14.00,2013-05-16 18:45:00,
2013-05-16 13:50:00,80.1,41.1,29.77,SE,124,7.0,7.0,25,0.00,,---,0.00,859.00,VWS V14.00,2013-05-16 18:50:00,
2013-05-16 13:55:00,80.3,41.3,29.77,ESE,123,9.0,9.0,25,0.00,,---,0.00,859.00,VWS V14.00,2013-05-16 18:55:00,
2013-05-16 14:00:00,80.3,41.3,29.77,ESE,102,2.0,2.0,25,0.00,,---,0.00,113.00,VWS V14.00,2013-05-16 19:00:00,
2013-05-16 14:05:00,80.3,41.3,29.76,ESE,119,5.0,6.0,25,0.00,,---,0.00,113.00,VWS V14.00,2013-05-16 19:05:00,
2013-05-16 14:10:00,80.3,38.0,29.76,ESE,106,8.0,8.0,22,0.00,,---,0.00,113.00,VWS V14.00,2013-05-16 19:10:00,
2013-05-16 14:15:00,80.5,40.4,29.76,ESE,120,6.0,6.0,24,0.00,,---,0.00,113.00,VWS V14.00,2013-05-16 19:15:00,
2013-05-16 14:20:00,80.5,40.4,29.77,ESE,102,6.0,6.0,24,0.00,,---,0.00,113.00,VWS V14.00,2013-05-16 19:20:00,
2013-05-16 14:25:00,80.7,40.6,29.77,East,100,3.0,3.0,24,0.00,,---,0.00,113.00,VWS V14.00,2013-05-16 19:25:00,
2013-05-16 14:30:00,81.6,44.4,29.77,East,95,5.0,5.0,27,0.00,,---,0.00,113.00,VWS V14.00,2013-05-16 19:30:00,
2013-05-16 14:35:00,81.2,44.1,29.77,East,92,3.0,3.0,27,0.00,,---,0.00,113.00,VWS V14.00,2013-05-16 19:35:00,
2013-05-16 14:40:00,80.7,43.7,29.77,East,100,4.0,5.0,27,0.00,,---,0.00,113.00,VWS V14.00,2013-05-16 19:40:00,
2013-05-16 14:45:00,80.3,40.3,29.77,East,93,4.0,4.0,24,0.00,,---,0.00,113.00,VWS V14.00,2013-05-16 19:45:00,
2013-05-16 14:50:00,80.3,40.3,29.76,ESE,102,2.0,3.0,24,0.00,,---,0.00,113.00,VWS V14.00,2013-05-16 19:50:00,
2013-05-16 14:55:00,80.7,40.6,29.76,ENE,64,3.0,3.0,24,0.00,,---,0.00,113.00,VWS V14.00,2013-05-16 19:55:00,
2013-05-16 15:00:00,80.9,40.8,29.76,NE,45,6.0,6.0,24,0.00,,---,0.00,113.00,VWS V14.00,2013-05-16 20:00:00,
2013-05-16 15:05:00,81.1,40.9,29.75,ESE,116,3.0,3.0,24,0.00,,---,0.00,113.00,VWS V14.00,2013-05-16 20:05:00,
2013-05-16 15:10:00,81.2,41.0,29.75,ESE,103,3.0,3.0,24,0.00,,---,0.00,113.00,VWS V14.00,2013-05-16 20:10:00,
2013-05-16 15:15:00,80.9,40.8,29.75,ESE,123,2.0,2.0,24,0.00,,---,0.00,113.00,VWS V14.00,2013-05-16 20:15:00,
2013-05-16 15:20:00,80.9,40.8,29.75,SE,143,3.0,3.0,24,0.00,,---,0.00,113.00,VWS V14.00,2013-05-16 20:20:00,
2013-05-16 15:25:00,80.5,43.5,29.75,East,90,4.0,4.0,27,0.00,,---,0.00,113.00,VWS V14.00,2013-05-16 20:25:00,
2013-05-16 15:30:00,80.3,43.3,29.75,ESE,113,3.0,3.0,27,0.00,,---,0.00,113.00,VWS V14.00,2013-05-16 20:30:00,
2013-05-16 15:35:00,80.5,43.5,29.75,NNE,31,5.0,7.0,27,0.00,,---,0.00,113.00,VWS V14.00,2013-05-16 20:35:00,
2013-05-16 15:40:00,80.5,43.5,29.75,NE,56,6.0,6.0,27,0.00,,---,0.00,113.00,VWS V14.00,2013-05-16 20:40:00,
2013-05-16 15:45:00,80.7,43.7,29.75,East,79,6.0,6.0,27,0.00,,---,0.00,113.00,VWS V14.00,2013-05-16 20:45:00,
2013-05-16 15:50:00,80.9,43.8,29.76,ENE,71,1.0,1.0,27,0.00,,---,0.00,586.00,VWS V14.00,2013-05-16 20:50:00,
2013-05-16 15:55:00,80.9,43.8,29.76,SE,127,3.0,3.0,27,0.00,,---,0.00,586.00,VWS V14.00,2013-05-16 20:55:00,
2013-05-16 16:00:00,80.9,40.8,29.76,ESE,106,3.0,3.0,24,0.00,,---,0.00,586.00,VWS V14.00,2013-05-16 21:00:00,
2013-05-16 16:05:00,80.3,40.3,29.76,SE,137,3.0,3.0,24,0.00,,---,0.00,586.00,VWS V14.00,2013-05-16 21:05:00,
2013-05-16 16:10:00,80.3,40.3,29.76,NW,312,3.0,3.0,24,0.00,,---,0.00,586.00,VWS V14.00,2013-05-16 21:10:00,
2013-05-16 16:15:00,80.3,40.3,29.76,SSE,147,0.0,0.0,24,0.00,,---,0.00,586.00,VWS V14.00,2013-05-16 21:15:00,
2013-05-16 16:20:00,79.9,39.9,29.76,East,100,2.0,2.0,24,0.00,,---,0.00,586.00,VWS V14.00,2013-05-16 21:20:00,
2013-05-16 16:25:00,79.9,39.9,29.76,East,100,2.0,2.0,24,0.00,,---,0.00,586.00,VWS V14.00,2013-05-16 21:25:00,
2013-05-16 16:30:00,79.9,39.9,29.76,East,100,2.0,2.0,24,0.00,,---,0.00,586.00,VWS V14.00,2013-05-16 21:30:00,
2013-05-16 16:35:00,79.9,39.9,29.78,East,100,2.0,2.0,24,0.00,,---,0.00,586.00,VWS V14.00,2013-05-16 21:35:00,
2013-05-16 16:40:00,79.9,39.9,29.78,East,100,2.0,2.0,24,0.00,,---,0.00,586.00,VWS V14.00,2013-05-16 21:40:00,
2013-05-16 16:45:00,79.9,39.9,29.78,East,100,2.0,2.0,24,0.00,,---,0.00,586.00,VWS V14.00,2013-05-16 21:45:00,
2013-05-16 16:50:00,79.9,39.9,29.78,East,100,2.0,2.0,24,0.00,,---,0.00,586.00,VWS V14.00,2013-05-16 21:50:00,
2013-05-16 16:55:00,79.9,39.9,29.78,East,100,2.0,2.0,24,0.00,,---,0.00,586.00,VWS V14.00,2013-05-16 21:55:00,
2013-05-16 17:00:00,79.9,39.9,29.78,East,100,2.0,2.0,24,0.00,,---,0.00,586.00,VWS V14.00,2013-05-16 22:00:00,
2013-05-16 17:05:00,79.9,39.9,29.78,East,100,2.0,2.0,24,0.00,,---,0.00,586.00,VWS V14.00,2013-05-16 22:05:00,
2013-05-16 17:10:00,79.9,39.9,29.78,East,100,2.0,2.0,24,0.00,,---,0.00,586.00,VWS V14.00,2013-05-16 22:10:00,
2013-05-16 17:15:00,79.9,39.9,29.78,East,100,2.0,2.0,24,0.00,,---,0.00,586.00,VWS V14.00,2013-05-16 22:15:00,
2013-05-16 17:20:00,79.9,39.9,29.77,East,100,2.0,2.0,24,0.00,,---,0.00,586.00,VWS V14.00,2013-05-16 22:20:00,
2013-05-16 17:25:00,79.9,39.9,29.77,East,100,2.0,2.0,24,0.00,,---,0.00,586.00,VWS V14.00,2013-05-16 22:25:00,
2013-05-16 17:30:00,79.9,39.9,29.77,East,100,2.0,2.0,24,0.00,,---,0.00,586.00,VWS V14.00,2013-05-16 22:30:00,
2013-05-16 17:35:00,79.9,39.9,29.77,East,100,2.0,2.0,24,0.00,,---,0.00,586.00,VWS V14.00,2013-05-16 22:35:00,
2013-05-16 17:40:00,79.9,39.9,29.77,ESE,119,5.0,5.0,24,0.00,,---,0.00,586.00,VWS V14.00,2013-05-16 22:40:00,
2013-05-16 17:45:00,79.4,39.5,29.77,NNE,13,1.0,1.0,24,0.00,,---,0.00,234.00,VWS V14.00,2013-05-16 22:45:00,
2013-05-16 17:50:00,79.4,38.4,29.75,East,88,5.0,5.0,23,0.00,,---,0.00,234.00,VWS V14.00,2013-05-16 22:50:00,
2013-05-16 17:55:00,79.0,38.1,29.75,NE,35,10.0,10.0,23,0.00,,---,0.00,234.00,VWS V14.00,2013-05-16 22:55:00,
2013-05-16 18:00:00,79.0,38.1,29.75,East,85,1.0,1.0,23,0.00,,---,0.00,209.00,VWS V14.00,2013-05-16 23:00:00,
2013-05-16 18:05:00,78.8,37.9,29.75,NNE,17,3.0,3.0,23,0.00,,---,0.00,209.00,VWS V14.00,2013-05-16 23:05:00,
2013-05-16 18:10:00,78.8,37.9,29.75,East,82,3.0,3.0,23,0.00,,---,0.00,209.00,VWS V14.00,2013-05-16 23:10:00,
2013-05-16 18:15:00,78.8,37.9,29.75,ENE,69,2.0,2.0,23,0.00,,---,0.00,209.00,VWS V14.00,2013-05-16 23:15:00,
2013-05-16 18:20:00,78.8,37.9,29.75,NE,37,5.0,5.0,23,0.00,,---,0.00,167.00,VWS V14.00,2013-05-16 23:20:00,
2013-05-16 18:25:00,78.8,37.9,29.75,ENE,61,2.0,2.0,23,0.00,,---,0.00,160.00,VWS V14.00,2013-05-16 23:25:00,
2013-05-16 18:30:00,78.5,37.7,29.75,NNE,21,3.0,4.0,23,0.00,,---,0.00,160.00,VWS V14.00,2013-05-16 23:30:00,
2013-05-16 18:35:00,78.5,37.7,29.75,ESE,106,3.0,6.0,23,0.00,,---,0.00,160.00,VWS V14.00,2013-05-16 23:35:00,
2013-05-16 18:40:00,78.3,37.5,29.75,NE,51,2.0,2.0,23,0.00,,---,0.00,160.00,VWS V14.00,2013-05-16 23:40:00,
2013-05-16 18:45:00,78.3,37.5,29.75,NE,54,6.0,6.0,23,0.00,,---,0.00,160.00,VWS V14.00,2013-05-16 23:45:00,
2013-05-16 18:50:00,78.1,37.3,29.75,North,0,7.0,7.0,23,0.00,,---,0.00,160.00,VWS V14.00,2013-05-16 23:50:00,
2013-05-16 18:55:00,78.1,37.3,29.75,NE,48,5.0,6.0,23,0.00,,---,0.00,90.00,VWS V14.00,2013-05-16 23:55:00,
2013-05-16 19:00:00,78.1,37.3,29.75,NE,49,3.0,3.0,23,0.00,,---,0.00,90.00,VWS V14.00,2013-05-17 00:00:00,
2013-05-16 19:05:00,77.7,37.0,29.75,NE,52,2.0,8.0,23,0.00,,---,0.00,81.00,VWS V14.00,2013-05-17 00:05:00,
2013-05-16 19:10:00,77.7,37.0,29.75,North,0,3.0,6.0,23,0.00,,---,0.00,81.00,VWS V14.00,2013-05-17 00:10:00,
2013-05-16 19:15:00,77.6,36.9,29.75,ENE,58,7.0,7.0,23,0.00,,---,0.00,81.00,VWS V14.00,2013-05-17 00:15:00,
2013-05-16 19:20:00,77.4,36.7,29.74,ENE,71,6.0,6.0,23,0.00,,---,0.00,81.00,VWS V14.00,2013-05-17 00:20:00,
2013-05-16 19:25:00,77.2,36.6,29.74,North,3,3.0,3.0,23,0.00,,---,0.00,81.00,VWS V14.00,2013-05-17 00:25:00,
2013-05-16 19:30:00,77.0,36.4,29.74,ENE,66,6.0,6.0,23,0.00,,---,0.00,81.00,VWS V14.00,2013-05-17 00:30:00,
2013-05-16 19:35:00,76.8,36.2,29.76,East,83,3.0,3.0,23,0.00,,---,0.00,81.00,VWS V14.00,2013-05-17 00:35:00,
2013-05-16 19:40:00,76.7,36.2,29.76,NE,37,6.0,6.0,23,0.00,,---,0.00,30.00,VWS V14.00,2013-05-17 00:40:00,
2013-05-16 19:45:00,76.7,36.2,29.76,ENE,64,8.0,8.0,23,0.00,,---,0.00,30.00,VWS V14.00,2013-05-17 00:45:00,
2013-05-16 19:50:00,76.3,35.8,29.76,NNE,27,1.0,1.0,23,0.00,,---,0.00,30.00,VWS V14.00,2013-05-17 00:50:00,
2013-05-16 19:55:00,76.1,35.7,29.76,East,90,2.0,2.0,23,0.00,,---,0.00,30.00,VWS V14.00,2013-05-17 00:55:00,
2013-05-16 20:00:00,75.8,35.4,29.76,ESE,109,1.0,1.0,23,0.00,,---,0.00,19.00,VWS V14.00,2013-05-17 01:00:00,
2013-05-16 20:05:00,75.6,35.2,29.76,ENE,71,3.0,7.0,23,0.00,,---,0.00,19.00,VWS V14.00,2013-05-17 01:05:00,
2013-05-16 20:10:00,75.4,35.1,29.76,NE,35,6.0,6.0,23,0.00,,---,0.00,19.00,VWS V14.00,2013-05-17 01:10:00,
2013-05-16 20:15:00,75.1,34.8,29.76,East,92,5.0,5.0,23,0.00,,---,0.00,14.00,VWS V14.00,2013-05-17 01:15:00,
2013-05-16 20:20:00,75.1,34.8,29.76,ESE,103,2.0,5.0,23,0.00,,---,0.00,14.00,VWS V14.00,2013-05-17 01:20:00,
2013-05-16 20:25:00,74.6,34.4,29.76,ESE,102,6.0,7.0,23,0.00,,---,0.00,5.00,VWS V14.00,2013-05-17 01:25:00,
2013-05-16 20:30:00,74.4,34.2,29.76,ESE,112,2.0,5.0,23,0.00,,---,0.00,5.00,VWS V14.00,2013-05-17 01:30:00,
2013-05-16 20:35:00,74.0,33.9,29.76,NNE,30,6.0,6.0,23,0.00,,---,0.00,5.00,VWS V14.00,2013-05-17 01:35:00,
2013-05-16 20:40:00,73.7,33.6,29.76,East,83,6.0,6.0,23,0.00,,---,0.00,5.00,VWS V14.00,2013-05-17 01:40:00,
2013-05-16 20:45:00,73.5,33.5,29.76,NE,54,8.0,8.0,23,0.00,,---,0.00,0.00,VWS V14.00,2013-05-17 01:45:00,
2013-05-16 20:50:00,73.2,33.2,29.76,East,83,7.0,7.0,23,0.00,,---,0.00,0.00,VWS V14.00,2013-05-17 01:50:00,
2013-05-16 20:55:00,73.0,33.0,29.76,SE,124,3.0,7.0,23,0.00,,---,0.00,0.00,VWS V14.00,2013-05-17 01:55:00,
2013-05-16 21:00:00,72.7,32.8,29.76,ENE,76,3.0,3.0,23,0.00,,---,0.00,0.00,VWS V14.00,2013-05-17 02:00:00,
2013-05-16 21:05:00,72.3,32.5,29.77,NE,51,9.0,9.0,23,0.00,,---,0.00,0.00,VWS V14.00,2013-05-17 02:05:00,
2013-05-16 21:10:00,72.3,32.5,29.77,East,90,6.0,6.0,23,0.00,,---,0.00,0.00,VWS V14.00,2013-05-17 02:10:00,
2013-05-16 21:15:00,72.0,32.2,29.77,NE,49,3.0,3.0,23,0.00,,---,0.00,0.00,VWS V14.00,2013-05-17 02:15:00,
2013-05-16 21:20:00,71.8,32.0,29.77,ENE,66,2.0,2.0,23,0.00,,---,0.00,0.00,VWS V14.00,2013-05-17 02:20:00,
2013-05-16 21:25:00,71.3,31.6,29.77,ESE,103,6.0,6.0,23,0.00,,---,0.00,0.00,VWS V14.00,2013-05-17 02:25:00,
2013-05-16 21:30:00,71.3,31.6,29.77,ENE,66,6.0,6.0,23,0.00,,---,0.00,0.00,VWS V14.00,2013-05-17 02:30:00,
2013-05-16 21:35:00,70.9,31.3,29.78,East,93,6.0,6.0,23,0.00,,---,0.00,0.00,VWS V14.00,2013-05-17 02:35:00,
2013-05-16 21:40:00,70.8,31.2,29.78,ESE,110,7.0,7.0,23,0.00,,---,0.00,0.00,VWS V14.00,2013-05-17 02:40:00,
2013-05-16 21:45:00,70.6,31.0,29.78,East,89,6.0,6.0,23,0.00,,---,0.00,0.00,VWS V14.00,2013-05-17 02:45:00,
2013-05-16 21:50:00,70.4,30.9,29.78,ENE,68,3.0,3.0,23,0.00,,---,0.00,0.00,VWS V14.00,2013-05-17 02:50:00,
2013-05-16 21:55:00,70.3,30.8,29.78,ESE,116,6.0,6.0,23,0.00,,---,0.00,0.00,VWS V14.00,2013-05-17 02:55:00,
2013-05-16 22:00:00,70.3,31.8,29.78,ENE,76,1.0,6.0,24,0.00,,---,0.00,0.00,VWS V14.00,2013-05-17 03:00:00,
2013-05-16 22:05:00,70.1,31.7,29.79,ENE,64,6.0,8.0,24,0.00,,---,0.00,0.00,VWS V14.00,2013-05-17 03:05:00,
2013-05-16 22:10:00,69.9,31.5,29.79,East,100,3.0,3.0,24,0.00,,---,0.00,0.00,VWS V14.00,2013-05-17 03:10:00,
2013-05-16 22:15:00,69.8,31.4,29.79,ESE,113,5.0,5.0,24,0.00,,---,0.00,0.00,VWS V14.00,2013-05-17 03:15:00,
2013-05-16 22:20:00,69.6,31.2,29.79,East,82,6.0,6.0,24,0.00,,---,0.00,0.00,VWS V14.00,2013-05-17 03:20:00,
2013-05-16 22:25:00,69.6,31.2,29.79,NE,37,5.0,5.0,24,0.00,,---,0.00,0.00,VWS V14.00,2013-05-17 03:25:00,
2013-05-16 22:30:00,69.4,31.1,29.79,East,99,4.0,4.0,24,0.00,,---,0.00,0.00,VWS V14.00,2013-05-17 03:30:00,
2013-05-16 22:35:00,69.1,30.8,29.78,ENE,78,2.0,4.0,24,0.00,,---,0.00,0.00,VWS V14.00,2013-05-17 03:35:00,
2013-05-16 22:40:00,69.1,30.8,29.78,East,92,3.0,3.0,24,0.00,,---,0.00,0.00,VWS V14.00,2013-05-17 03:40:00,
2013-05-16 22:45:00,69.1,30.8,29.78,East,100,6.0,6.0,24,0.00,,---,0.00,0.00,VWS V14.00,2013-05-17 03:45:00,
2013-05-16 22:50:00,68.6,30.4,29.78,East,88,11.0,11.0,24,0.00,,---,0.00,0.00,VWS V14.00,2013-05-17 03:50:00,
2013-05-16 22:55:00,68.4,30.2,29.78,ENE,73,5.0,11.0,24,0.00,,---,0.00,0.00,VWS V14.00,2013-05-17 03:55:00,
2013-05-16 23:00:00,68.3,28.0,29.78,ENE,72,6.0,7.0,22,0.00,,---,0.00,0.00,VWS V14.00,2013-05-17 04:00:00,
2013-05-16 23:01:00,68.3,28.0,29.78,ENE,69,7.0,7.0,22,0.00,,---,0.00,0.00,VWS V14.00,2013-05-17 04:01:00,
2013-05-16 23:06:00,68.3,28.0,29.79,NE,55,8.0,8.0,22,0.00,,---,0.00,0.00,VWS V14.00,2013-05-17 04:06:00,
2013-05-16 23:11:00,68.3,28.0,29.79,SE,137,2.0,2.0,22,0.00,,---,0.00,0.00,VWS V14.00,2013-05-17 04:11:00,
2013-05-16 23:16:00,68.3,28.0,29.79,ESE,103,4.0,8.0,22,0.00,,---,0.00,0.00,VWS V14.00,2013-05-17 04:16:00,
2013-05-16 23:21:00,67.9,27.7,29.79,East,96,5.0,5.0,22,0.00,,---,0.00,0.00,VWS V14.00,2013-05-17 04:21:00,
2013-05-16 23:26:00,67.8,27.6,29.79,ENE,71,5.0,5.0,22,0.00,,---,0.00,0.00,VWS V14.00,2013-05-17 04:26:00,
2013-05-16 23:31:00,67.8,25.3,29.79,East,85,5.0,10.0,20,0.00,,---,0.00,0.00,VWS V14.00,2013-05-17 04:31:00,
2013-05-16 23:36:00,67.6,25.1,29.79,East,86,5.0,8.0,20,0.00,,---,0.00,0.00,VWS V14.00,2013-05-17 04:36:00,
2013-05-16 23:41:00,67.6,25.1,29.79,ESE,107,5.0,5.0,20,0.00,,---,0.00,0.00,VWS V14.00,2013-05-17 04:41:00,
2013-05-16 23:46:00,67.4,25.0,29.79,NE,48,2.0,3.0,20,0.00,,---,0.00,0.00,VWS V14.00,2013-05-17 04:46:00,
2013-05-16 23:51:00,67.4,25.0,29.78,ENE,72,6.0,6.0,20,0.00,,---,0.00,0.00,VWS V14.00,2013-05-17 04:51:00,
2013-05-16 23:56:00,67.3,24.9,29.78,East,86,4.0,4.0,20,0.00,,---,0.00,0.00,VWS V14.00,2013-05-17 04:56:00,